SCP
0 0 0 0 0 0 0 0 0 0 0 0 0 0 0 0 0 0 0 0 0 0 0 0 0 0 0 0 0 0 0 0 0 0 0 0 0 0 0 0 0 0 0
0 0 0 0 0 0 0 0 0 0 0 0 0 0 0 0 0 0 0 0 0 0 0 0 0 0 0 0 0 0 0 0 0 0 0 0 0 0 0 0 0 0 0
0 0 0 0 0 0 0 0 0 0 0 0 0 0 0 0 0 0 0 0 0 0 0 0 0 0 0 0 0 0 0 0 0 0 0 0 0 0 0 0 0 0 0
0 0 0 0 0 0 0 0 0 0 0 0 0 0 0 0 0 0 0 0 0 0 0 0 0 0 0 0 0 0 0 0 0 0 0 0 0 0 0 0 0 0 0
0 0 0 0 0 0 0 0 0 0 0 0 0 0 0 0 0 0 0 0 0 0 0 0 0 0 0 0 0 0 0 0 0 0 0 0 0 0 0 0 0 0 0
0 0 0 0 0 0 0 0 0 0 0 0 0 0 0 0 0 0 0 0 0 0 0 0 0 0 0 0 0 0 0 0 0 0 0 0 0 0 0 0 0 0 0
0 0 0 0 0 0 0 0 0 0 0 0 0 0 0 0 0 0 0 0 0 0 0 0 0 0 0 0 0 0 0 0 0 0 0 0 0 0 0 0 0 0 0
0 0 0 0 0 0 0 0 0 0 0 0 0 0 0 0 0 0 0 0 0 0 0 0 0 0 0 0 0 0 0 0 0 0 0 0 0 0 0 0 0 0 0
0 0 0 0 0 0 0 0 0 0 0 0 0 0 0 0 0 0 0 0 0 0 0 0 0 0 0 0 0 0 0 0 0 0 0 0 0 0 0 0 0 0 0
0 0 0 0 0 0 0 0 0 0 0 0 0 0 0 0 0 0 0 0 0 0 0 0 0 0 0 0 0 0 0 0 0 0 0 0 0 0 0 0 0 0 0
0 0 0 0 0 0 0 0 0 0 0 0 0 0 0 0 0 0 0 0 0 0 0 0 0 0 0 0 0 0 0 0 0 0 0 0 0 0 0 0 0 0 0
0 0 0 0 0 0 0 0 0 0 0 0 0 0 0 0 0 0 0 0 0 0 0 0 0 0 0 0 0 0 0 0 0 0 0 0 0 0 0 0 0 0 0
0 0 0 0 0 0 0 0 0 0 0 0 0 0 0 0 0 0 0 0 0 0 0 0 0 0 0 0 0 0 0 0 0 0 0 0 0 0 0 0 0 0 0
0 0 0 0 0 0 0 0 0 0 0 0 0 0 0 0 0 0 0 0 0 0 0 0 0 0 0 0 0 0 0 0 0 0 0 0 0 0 0 0 0 0 0
0 0 0 0 0 0 0 0 0 0 0 0 0 0 0 0 0 0 0 0 0 0 0 0 0 0 0 0 0 0 0 0 0 0 0 0 0 0 0 0 0 0 0
0 0 0 0 0 0 0 0 0 0 0 0 0 0 0 0 0 0 0 0 0 0 0 0 0 0 0 0 0 0 0 0 0 0 0 0 0 0 0 0 0 0 0
0 0 0 0 0 0 0 0 0 0 0 0 0 0 0 0 0 0 0 0 0 0 0 0 0 0 0 0 0 0 0 0 0 0 0 0 0 0 0 0 0 0 0
0 0 0 0 0 0 0 0 0 0 0 0 0 0 0 0 0 0 0 0 0 0 0 0 0 0 0 0 0 0 0 0 0 0 0 0 0 0 0 0 0 0 0
0 0 0 0 0 0 0 0 0 0 0 0 0 0 0 0 0 0 0 0 0 0 0 0 0 0 0 0 0 0 0 0 0 0 0 0 0 0 0 0 0 0 0
0 0 0 0 0 0 0 0 0 0 0 0 0 0 0 0 0 0 0 0 0 0 0 0 0 0 0 0 0 0 0 0 0 0 0 0 0 0 0 0 0 0 0
0 0 0 0 0 0 0 0 0 0 0 0 0 0 0 0 0 0 0 0 0 0 0 0 0 0 0 0 0 0 0 0 0 0 0 0 0 0 0 0 0 0 0
0 0 0 0 0 0 0 0 0 0 0 0 0 0 0 0 0 0 0 0 0 0 0 0 0 0 0 0 0 0 0 0 0 0 0 0 0 0 0 0 0 0 0
0 0 0 0 0 0 0 0 0 0 0 0 0 0 0 0 0 0 0 0 0 0 0 0 0 0 0 0 0 0 0 0 0 0 0 0 0 0 0 0 0 0 0
0 0 0 0 0 0 0 0 0 0 0 0 0 0 0 0 0 0 0 0 0 0 0 0 0 0 0 0 0 0 0 0 0 0 0 0 0 0 0 0 0 0 0
0 0 0 0 0 0 0 0 0 0 0 0 0 0 0 0 0 0 0 0 0 0 0 0 0 0 0 0 0 0 0 0 0 0 0 0 0 0 0 0 0 0 0
0 0 0 0 0 0 0 0 0 0 0 0 0 0 0 0 0 0 0 0 0 0 0 0 0 0 0 0 0 0 0 0 0 0 0 0 0 0 0 0 0 0 0
Wind_Speed
10 10 10 9 9 9 8 9 8 8 9 9 8 8 7 7 7 5 4 4 4 4 4 5 7 7 6 6 6 6 6 6 8 5 4 4 7 8 7 8 8 8 9
9 9 9 9 9 9 10 10 9 9 9 9 9 9 9 8 8 7 7 6 5 4 4 4 5 4 6 6 6 7 7 7 7 7 5 5 8 8 8 8 7 6 7
8 8 9 9 9 9 9 9 9 9 9 9 9 9 9 9 8 8 7 7 6 6 5 4 5 5 6 5 6 7 6 6 6 6 6 5 4 5 7 6 7 6 6
7 8 8 9 9 8 8 8 8 8 8 8 8 8 8 8 8 8 8 8 8 7 6 5 5 5 6 6 6 7 6 7 7 6 5 5 4 5 6 6 6 6 6
6 7 7 7 7 7 7 8 8 8 8 8 8 8 8 7 8 10 9 9 9 9 8 7 6 7 8 7 6 7 7 7 6 6 6 5 5 6 7 6 7 6 5
5 6 6 6 6 7 7 7 7 7 8 8 8 8 8 7 11 14 12 9 9 9 9 9 8 8 8 10 12 11 10 9 8 8 8 8 8 8 7 7 7 6 6
4 5 6 6 7 7 7 8 8 8 8 8 8 8 9 10 13 14 14 11 9 8 9 9 8 7 9 9 10 12 11 13 13 10 10 10 9 8 9 10 10 9 7
4 5 6 6 7 7 7 8 8 8 8 8 8 9 9 9 13 15 15 11 9 9 9 9 10 10 9 11 10 10 10 10 11 10 10 10 9 8 10 10 10 6 2
4 5 6 7 7 8 8 8 8 8 8 8 8 9 9 10 13 14 14 9 8 10 10 10 10 11 13 15 12 11 11 10 9 12 13 12 12 13 10 6 7 7 5
4 5 6 6 7 8 8 8 8 8 8 9 9 9 9 10 13 15 15 8 9 9 9 9 11 12 16 16 12 11 11 9 8 8 9 9 9 11 14 12 9 9 5
4 5 5 6 6 7 7 7 8 8 8 8 9 9 9 10 12 13 14 9 9 10 9 9 9 15 17 17 15 11 12 11 9 8 7 7 6 6 8 8 8 8 7
4 5 5 6 6 6 7 7 7 8 8 9 9 9 7 8 10 12 15 14 14 11 10 9 10 17 19 19 14 14 16 13 7 6 6 6 6 6 5 6 5 5 4
4 5 5 6 6 6 7 8 7 7 7 7 8 9 9 8 9 14 15 17 17 12 10 16 19 20 19 14 14 15 12 7 6 6 6 6 5 5 4 3 2 2 1
4 5 5 6 6 6 6 6 6 7 7 8 8 9 9 9 9 9 10 11 13 12 11 14 18 17 14 13 12 9 6 6 6 6 6 5 4 4 4 4 4 3 3
4 5 5 5 6 6 6 6 7 7 8 10 9 9 10 10 12 18 15 11 11 12 13 11 9 8 7 7 7 7 6 5 5 5 5 5 4 4 4 4 4 4 4
4 4 4 5 5 6 7 7 8 10 14 15 15 14 12 15 20 21 21 20 21 20 14 9 9 8 8 8 8 7 6 6 5 5 5 5 5 4 4 3 4 4 5
4 5 4 5 5 6 6 7 9 9 11 13 14 15 16 18 20 20 20 20 19 17 10 8 8 8 8 8 7 7 7 6 5 5 5 5 5 4 4 4 4 4 5
4 5 5 5 5 6 6 7 8 9 10 9 11 14 16 18 19 19 19 16 10 9 7 8 8 8 8 8 7 7 7 6 5 5 5 5 5 4 5 5 5 5 5
4 4 4 5 5 6 6 7 7 9 9 9 10 11 14 16 17 16 14 8 8 8 8 8 8 8 8 8 7 7 7 7 6 6 5 5 5 5 5 5 4 7 6
3 5 6 5 5 6 6 7 7 8 9 9 9 10 10 12 9 9 9 8 8 8 8 9 8 9 8 8 7 7 7 7 6 6 5 5 4 4 5 5 5 5 4
3 4 6 6 5 6 6 7 7 8 8 9 9 11 16 11 10 10 9 8 8 8 9 9 9 9 8 8 7 7 8 7 6 6 5 4 4 4 4 4 4 4 4
3 4 4 5 5 6 7 7 7 8 9 10 9 10 16 10 8 9 9 9 9 8 8 9 8 8 8 7 7 7 7 7 6 6 5 4 4 4 3 4 4 4 5
3 4 5 5 5 8 7 7 7 8 9 9 9 9 9 9 9 9 9 9 9 9 8 8 9 8 8 7 7 7 7 7 6 6 5 5 4 3 3 4 5 5 6
3 4 5 5 6 6 6 7 7 8 9 9 9 9 9 9 10 10 10 9 9 9 9 8 9 11 12 10 8 7 6 7 7 6 7 6 4 3 3 4 5 6 7
3 4 5 5 5 6 6 7 7 8 8 9 9 9 9 10 10 10 9 9 10 10 11 10 8 9 11 12 11 8 9 12 10 7 5 5 5 4 4 5 5 6 7
4 4 5 5 5 6 6 7 7 8 8 8 9 9 9 9 9 9 9 9 9 10 10 9 10 12 12 10 11 11 12 12 11 9 5 4 4 4 4 4 6 6 8
Wind_Direction
32 35 36 33 30 33 32 25 19 16 16 13 10 10 11 9 3 357 342 320 293 284 275 256 245 238 232 227 227 228 228 230 244 241 220 207 204 211 209 214 214 210 207
30 33 34 31 29 30 28 21 18 19 19 16 14 15 14 11 6 4 358 351 329 311 299 284 270 256 244 234 231 232 232 231 238 242 226 211 218 213 209 209 207 210 209
28 30 31 29 26 24 21 16 16 15 14 13 12 11 8 5 2 359 354 346 335 328 316 296 287 272 260 253 247 244 240 239 237 239 233 219 222 204 205 208 206 206 204
24 26 27 23 19 17 14 12 11 9 8 8 6 4 1 358 357 353 349 342 336 327 323 315 303 291 276 268 254 250 247 243 239 239 235 222 216 203 201 203 207 203 201
23 25 22 16 13 11 9 6 4 3 0 358 357 356 354 352 355 349 342 337 332 328 322 315 308 303 302 287 270 255 247 242 239 239 237 227 218 202 207 202 211 205 206
19 19 13 8 7 6 2 358 357 356 354 352 351 348 347 347 347 344 338 330 327 322 319 317 312 302 298 299 281 266 254 247 242 239 239 236 230 223 217 207 201 199 212
9 7 3 359 358 357 354 353 352 348 346 345 344 341 337 339 339 337 335 325 319 316 314 313 310 309 307 298 294 273 257 250 245 244 245 243 237 227 218 216 210 208 214
358 357 353 350 347 345 344 344 342 338 336 334 332 330 327 328 332 332 330 321 314 312 311 310 309 310 312 312 302 287 269 256 249 246 247 247 245 233 224 223 222 219 215
345 345 343 339 336 335 335 334 332 328 326 324 321 321 320 321 328 329 328 317 311 310 309 309 309 308 313 316 306 295 280 270 256 250 253 254 250 241 230 220 206 199 210
334 330 330 329 327 326 326 325 324 320 316 316 314 314 313 314 323 326 326 315 311 310 308 306 306 308 311 312 306 299 288 282 280 273 266 256 247 234 223 217 207 204 197
318 315 319 322 321 318 317 317 316 313 311 311 310 311 311 313 317 322 324 318 314 311 307 306 305 310 309 307 302 292 290 291 280 271 270 268 256 240 228 226 216 208 200
309 310 316 318 317 314 314 313 314 314 312 313 313 314 313 315 315 317 318 315 312 306 303 302 302 305 305 301 297 292 294 291 278 267 261 259 254 247 238 231 228 226 222
303 309 312 314 315 316 315 314 315 315 312 313 313 313 315 315 313 314 314 314 312 305 298 300 301 301 301 297 291 291 290 284 276 269 263 264 264 253 243 232 224 191 164
300 309 314 316 317 317 312 309 310 311 311 311 312 312 311 311 313 317 316 313 310 305 301 299 299 295 292 292 293 291 284 278 277 272 271 274 275 261 244 225 212 193 175
302 310 313 312 311 310 308 307 306 303 306 309 308 308 308 308 311 314 312 309 309 304 305 299 295 294 294 297 295 291 287 282 279 278 274 271 267 258 251 234 211 205 204
301 308 308 308 308 307 309 306 295 296 304 304 303 304 303 303 309 313 313 312 310 308 305 296 297 298 298 299 297 294 288 281 279 277 272 268 263 256 250 234 219 213 205
295 301 301 303 306 309 310 310 311 309 306 306 308 312 313 314 316 315 314 314 311 310 303 298 298 298 297 296 294 292 288 283 280 271 268 267 261 253 243 232 223 211 205
288 290 294 298 302 304 305 307 307 310 314 314 316 316 318 319 318 316 317 316 310 311 303 300 298 297 295 294 291 291 291 285 276 271 267 263 255 250 241 232 222 211 199
285 292 297 300 301 302 304 304 303 304 305 308 312 315 322 321 318 317 321 315 310 308 306 302 299 297 295 293 290 289 289 287 279 274 268 260 254 247 241 233 223 206 197
280 295 303 301 301 303 305 305 306 306 306 308 310 315 321 318 316 319 320 314 308 306 305 304 302 300 298 294 290 287 287 286 281 273 270 263 255 246 239 229 213 201 199
283 291 297 298 299 303 305 305 305 305 305 306 306 310 317 315 312 312 312 311 310 307 305 304 301 300 297 294 289 286 287 286 283 278 272 265 256 247 237 223 208 198 190
282 290 295 297 299 300 303 304 304 303 304 305 307 311 316 313 306 306 307 307 307 304 302 299 297 295 294 293 289 287 285 284 284 281 273 266 258 242 229 212 199 189 179
279 289 293 294 296 301 303 302 303 303 304 305 307 309 311 311 309 307 307 307 307 306 303 299 296 294 293 292 286 279 277 278 280 281 278 266 255 237 221 206 194 185 178
275 284 290 294 297 298 300 302 303 303 304 305 306 307 308 309 308 308 308 306 305 304 303 300 296 294 294 294 288 281 275 277 279 274 271 261 249 233 215 201 195 188 177
273 282 287 291 294 296 299 300 301 303 304 304 305 306 306 306 305 306 306 305 305 303 302 301 295 296 296 294 290 285 281 282 281 276 269 254 237 225 212 201 191 180 172
273 279 283 285 287 291 294 297 299 303 303 303 302 302 302 303 303 303 305 305 306 306 304 300 297 299 299 295 289 285 285 284 279 275 268 247 232 218 204 197 186 178 170